User: anonymous   Login
Location: Unspecified
(0.0000°N, 0.0000°E)
Time: 11:40:31
(UTC+00:00)
Language:

IGS RADAR-5 - Orbit

View from above orbital plane
View from above orbital plane
View from above satellite
View from above satellite

Ground track
Ground track

The orbit data is extracted from the following two-line orbital elements,

1 42072U 17015A   18271.78016065 0.00000000  00000-0  00000-0 0    04
2 42072  97.3708 341.3701 0002000 326.7067  33.2931 15.25979300    05
Epoch (UTC): 28 September 2018 18:43:25
Eccentricity: 0.0002000
inclination: 97.3708°
perigee height: 486 km
apogee height: 489 km
right ascension of ascending node: 341.3701°
argument of perigee: 326.7067°
revolutions per day: 15.25979300
mean anomaly at epoch: 33.2931°
orbit number at epoch: 0

The dashed part of the orbit path shows where the satellite is in the earth's shadow,  

DLR